Regional Weather Roundup
Issued by NWS

Home | Current Version | Previous Version | Text Only | Print | Product List | Glossary Off
Versions: 1 2 3 4 5 6 7 8 9 10 11 12 13 14 15 16 17 18 19 20 21 22 23 24 25 26 27 28 29 30 31 32 33 34 35 36 37 38 39 40 41 42 43 44 45 46 47 48 49 50

000
ASUS43 KLMK 240610
RWRKY
KENTUCKY REGIONAL WEATHER ROUNDUP
NATIONAL WEATHER SERVICE LOUISVILLE KY
100 AM EST MON NOV 24 2014

NOTE "FAIR" INDICATES FEW OR NO CLOUDS BELOW 12,000 FEET
WITH NO SIGNIFICANT WEATHER AND/OR OBSTRUCTIONS TO VISIBILITY.

KYZ001>023-026-027-061>063-070>075-240700-
WESTERN AND SOUTH CENTRAL KENTUCKY

CITY           SKY/WX    TMP DP  RH WIND       PRES   REMARKS
PADUCAH        CLOUDY    60  57  89 SW13G24   29.32F
HENDERSON      CLOUDY    59  54  82 SW15G22   29.32F
OWENSBORO      CLOUDY    60  57  89 MISG      29.36S
HOPKINSVILLE   CLOUDY    61  61 100 S15       29.41F
BOWLING GREEN  CLOUDY    62  56  80 S15G23    29.45R
GLASGOW        CLOUDY    60  57  89 SW15G22   29.46S
$$

KYZ024-025-028>034-038-045-046-053-240700-
NORTH CENTRAL KENTUCKY

CITY           SKY/WX    TMP DP  RH WIND       PRES   REMARKS
LOUISVILLE/SDF CLOUDY    61  56  83 SW20G33   29.36R
LOUISVILLE/LOU CLOUDY    61  56  83 SW14G25   29.36R
FORT KNOX      LGT RAIN  59  57  94 S13G22    29.38R
$$

KYZ035>037-039>044-047>052-055>060-089>105-240700-
NORTHEAST KENTUCKY

CITY           SKY/WX    TMP DP  RH WIND       PRES   REMARKS
LEXINGTON      CLOUDY    59  56  89 SW20G32   29.40R
COVINGTON      LGT RAIN  59  54  83 SW17G30   29.29R
FRANKFORT      CLOUDY    59  55  87 SW18G30   29.37R
$$

KYZ054-064>069-076>088-106>120-240700-
SOUTHEAST KENTUCKY

CITY           SKY/WX    TMP DP  RH WIND       PRES   REMARKS
JACKSON        LGT RAIN  59  53  80 S9G22     29.49R
LONDON         MOCLDY    62  53  72 SW16G30   29.51R
SOMERSET       CLOUDY    61  54  77 SW21G32   29.52R
MIDDLESBORO    CLOUDY    60  55  85 S12G22    29.58S
MONTICELLO     MOCLDY    62  56  81 SW21G37   29.54R
$$




USA.gov is the U.S. government's official web portal to all federal, state and local government web resources and services.